Location: Home
(42.5358°N, 72.7383°W)
Time: 14:44:53
(UTC-05:00)

Explorer 11/Cluster Stage 4 - Pass Details

Date: 23 December 2025
Orbit: 463 x 1179 km, 28.8° (Epoch: 21 January)

Event Time Altitude Azimuth Distance (km) Brightness Sun altitude
Rises 19:23:03 0° 256° (WSW) 4,044 11.3 -32.3°
Reaches altitude 10° 19:27:59 10° 230° (SW) 3,088 10.2 -33.2°
Maximum altitude 19:30:55 12° 207° (SSW) 2,879 9.7 -33.8°
Drops below altitude 10° 19:33:49 10° 184° (S) 3,026 9.6 -34.3°
Enters shadow 19:35:01 - 176° (S) 3,184 9.6 -34.5°
